Terug naar catalogus

STARLINK-32320

ActiefCommunicatieVLEO
NORAD 61638·PAYLOAD·🇺🇸 United States

Gelanceerd Oct 23, 2024 vanaf Cape Canaveral Space Force Station

Loading…

Volgende Passages (komende 24 uur)

TLE

VersSource: CelesTrak SupGP

Epoch: Sep 15, 2026, 02:50 UTC

1 61638C 24191T   26258.11854167  .00012840  00000+0  46508-3 0  2585
2 61638  43.0014 168.6054 0001376 271.7732  32.9438 15.27570654    16

Volg STARLINK-32320 in realtime met AllMySat

Download on the App Store